EW7966 Weather Reports


time (UTC)temp
F
wind
direction
speed
knots
gust
knots
rain 1hr
in
rain 24hr
in
rain mn
in
humidity
%
barometer
mb
20260906132006 60 234 2.6 6.1 0.00 0.00 0.00 64 1020.3
20260906131509 60 262 2.6 6.1 0.00 0.00 0.00 65 1003.3
20260906131005 59 234 1.7 3.5 0.00 0.00 0.00 66 1020.2
20260906130504 59 204 2.6 3.5 0.00 0.00 0.00 66 1020.2
20260906130006 59 204 1.7 2.6 0.00 0.00 0.00 67 1020.2
20260906130004 59 204 0.9 2.6 0.00 0.00 0.00 67 1003.1
20260906125505 58 204 1.7 3.5 0.00 0.00 0.00 68 1020.3
20260906125005 58 204 1.7 3.5 0.00 0.00 0.00 68 1020.3
20260906124506 57 204 0.9 1.7 0.00 0.00 0.00 69 1020.3
20260906124504 57 204 0.9 1.7 0.00 0.00 0.00 69 1003.2
20260906124006 57 204 0.9 2.6 0.00 0.00 0.00 70 1020.3
20260906123504 57 204 0.9 3.5 0.00 0.00 0.00 70 1020.2
20260906123005 57 204 1.7 3.5 0.00 0.00 0.00 70 1003.0
20260906122005 58 204 0.9 1.7 0.00 0.00 0.00 67 1020.1
20260906121506 59 204 1.7 2.6 0.00 0.00 0.00 66 1020.1
20260906121504 59 204 0.9 2.6 0.00 0.00 0.00 66 1003.0
20260906121005 59 204 1.7 2.6 0.00 0.00 0.00 65 1020.2
20260906120505 60 204 1.7 2.6 0.00 0.00 0.00 64 1020.1
20260906120006 60 204 1.7 2.6 0.00 0.00 0.00 65 1020.1
20260906120004 60 204 1.7 2.6 0.00 0.00 0.00 65 1002.9
20260906115505 60 204 0.0 1.7 0.00 0.00 0.00 64 1020.1
20260906114506 60 204 0.9 1.7 0.00 0.00 0.00 64 1002.5
20260906114005 60 204 0.9 1.7 0.00 0.00 0.00 64 1019.8
20260906113504 60 204 0.0 1.7 0.00 0.00 0.00 64 1019.9
20260906113006 60 204 0.9 1.7 0.00 0.00 0.00 64 1002.6
20260906112504 60 204 0.9 2.6 0.00 0.00 0.00 65 1019.9
20260906112006 59 204 0.9 2.6 0.00 0.00 0.00 66 1019.9
20260906111504 58 204 1.7 2.6 0.00 0.00 0.00 67 1019.8
20260906111502 58 204 0.9 2.6 0.00 0.00 0.00 67 1002.5
20260906111006 58 204 1.7 2.6 0.00 0.00 0.00 69 1019.7
20260906110505 57 204 0.9 2.6 0.00 0.00 0.00 71 1019.7
20260906110007 57 204 0.9 4.3 0.00 0.00 0.00 72 1019.7
20260906110004 57 204 0.9 4.3 0.00 0.00 0.00 72 1002.5
20260906105005 58 204 1.7 5.2 0.00 0.00 0.00 71 1019.6
20260906104505 58 204 2.6 4.3 0.00 0.00 0.00 71 1019.6
20260906104503 58 204 2.6 4.3 0.00 0.00 0.00 71 1002.3
20260906104005 59 204 1.7 3.5 0.00 0.00 0.00 69 1019.7
20260906103006 59 204 2.6 3.5 0.00 0.00 0.00 69 1019.6
20260906103004 59 204 2.6 3.5 0.00 0.00 0.00 69 1002.3
20260906102006 59 204 0.0 3.5 0.00 0.00 0.00 71 1019.7
20260906101558 59 204 0.9 4.3 0.00 0.00 0.00 72 1002.4
20260906101505 59 204 0.9 4.3 0.00 0.00 0.00 72 1019.7
20260906101006 59 204 3.5 4.3 0.00 0.00 0.00 74 1019.7
20260906100505 59 204 2.6 3.5 0.00 0.00 0.00 74 1019.7
20260906100004 59 204 2.6 5.2 0.00 0.00 0.00 74 1002.5
20260906095006 59 208 2.6 4.3 0.00 0.00 0.00 74 1019.9
20260906094511 59 238 1.7 4.3 0.00 0.00 0.00 74 1002.4
20260906094504 59 238 2.6 4.3 0.00 0.00 0.00 74 1019.8
20260906094005 59 238 2.6 3.5 0.00 0.00 0.00 73 1019.9
20260906093505 60 131 1.7 6.1 0.00 0.00 0.00 72 1019.9
20260906093006 60 131 3.5 6.1 0.00 0.00 0.00 72 1019.9
20260906091506 61 188 0.9 2.6 0.00 0.00 0.00 72 1019.7
20260906091502 61 188 0.9 2.6 0.00 0.00 0.00 72 1002.2
20260906090958 61 188 1.7 2.6 0.00 0.00 0.00 72 1019.5
20260906090506 61 188 0.9 3.5 0.00 0.00 0.00 73 1019.4
20260906090007 61 188 1.7 3.5 0.00 0.00 0.00 73 1019.4
20260906090003 61 188 1.7 3.5 0.00 0.00 0.00 73 1002.0
20260906085505 61 188 1.7 3.5 0.00 0.00 0.00 72 1019.5
20260906085006 62 188 2.6 3.5 0.00 0.00 0.00 70 1019.6
20260906084504 63 188 2.6 3.5 0.00 0.00 0.00 69 1019.5
20260906084006 64 188 1.7 3.5 0.00 0.00 0.00 67 1019.6
20260906083505 64 188 2.6 3.5 0.00 0.00 0.00 67 1019.7
20260906083003 63 188 1.7 3.5 0.00 0.00 0.00 65 1002.2
20260906082505 63 188 0.9 2.6 0.00 0.00 0.00 65 1019.6
20260906082005 63 188 0.0 4.3 0.00 0.00 0.00 64 1019.7
20260906081555 63 188 0.9 4.3 0.00 0.00 0.00 64 1002.2
20260906081508 63 188 0.9 4.3 0.00 0.00 0.00 64 1002.2
20260906080958 63 248 1.7 3.5 0.00 0.00 0.00 66 1019.8
20260906080505 62 248 2.6 3.5 0.00 0.00 0.00 68 1019.8
20260906080009 62 199 0.9 3.5 0.00 0.00 0.00 72 1002.1
20260906075505 61 199 1.7 5.2 0.00 0.00 0.00 74 1019.8
20260906075006 61 192 3.5 5.2 0.00 0.00 0.00 74 1019.8
20260906074506 61 165 1.7 4.3 0.00 0.00 0.00 74 1019.8
20260906074504 61 165 0.9 4.3 0.00 0.00 0.00 74 1002.2
20260906074005 61 165 1.7 2.6 0.00 0.00 0.00 72 1019.8
20260906073006 62 165 0.0 4.3 0.00 0.00 0.00 71 1019.9
20260906073003 62 165 0.0 4.3 0.00 0.00 0.00 71 1002.2
20260906072505 62 165 1.7 4.3 0.00 0.00 0.00 71 1019.9
20260906072006 62 165 1.7 4.3 0.00 0.00 0.00 70 1019.8
20260906071505 63 165 2.6 2.6 0.00 0.00 0.00 69 1019.8
20260906071503 63 165 1.7 2.6 0.00 0.00 0.00 69 1002.1
20260906071006 63 165 1.7 2.6 0.00 0.00 0.00 68 1019.8
20260906070505 65 165 0.0 2.6 0.00 0.00 0.00 65 1019.9
20260906070007 66 165 0.9 4.3 0.00 0.00 0.00 63 1019.9
20260906070003 66 165 0.0 4.3 0.00 0.00 0.00 63 1002.2
20260906065007 67 165 3.5 4.3 0.00 0.00 0.00 61 1020.0
20260906064506 67 212 1.7 2.6 0.00 0.00 0.00 63 1019.9
20260906064504 67 212 0.9 2.6 0.00 0.00 0.00 63 1002.2
20260906064005 67 212 0.9 2.6 0.00 0.00 0.00 62 1019.9
20260906063505 66 212 1.7 3.5 0.00 0.00 0.00 62 1019.9
20260906063005 67 212 0.9 4.3 0.00 0.00 0.00 64 1019.9
20260906063003 67 212 0.0 4.3 0.00 0.00 0.00 64 1002.1
20260906062505 67 313 2.6 4.3 0.00 0.00 0.00 63 1019.9
20260906062006 67 210 1.7 3.5 0.00 0.00 0.00 63 1019.8
20260906061505 67 210 1.7 3.5 0.00 0.00 0.00 64 1019.7
20260906061503 67 210 0.9 3.5 0.00 0.00 0.00 64 1001.8
20260906061006 67 210 1.7 6.1 0.00 0.00 0.00 64 1019.7
20260906060505 67 210 2.6 6.1 0.00 0.00 0.00 64 1019.7
20260906060007 67 290 2.6 3.5 0.00 0.00 0.00 64 1019.7
20260906060002 67 290 1.7 3.5 0.00 0.00 0.00 64 1001.7
20260906055505 67 290 1.7 3.5 0.00 0.00 0.00 64 1019.7
20260906054505 68 290 2.6 3.5 0.00 0.00 0.00 63 1019.9
20260906054007 69 290 1.7 3.5 0.00 0.00 0.00 62 1019.9
20260906053505 69 290 1.7 3.5 0.00 0.00 0.00 61 1019.9
20260906053009 70 290 1.7 3.5 0.00 0.00 0.00 60 1019.9
20260906053003 70 290 1.7 3.5 0.00 0.00 0.00 60 1001.8
20260906052506 70 290 0.0 3.5 0.00 0.00 0.00 59 1019.8
20260906052006 71 290 0.9 3.5 0.00 0.00 0.00 59 1019.8
20260906051503 71 290 1.7 3.5 0.00 0.00 0.00 59 1001.6
20260906051006 71 290 0.0 2.6 0.00 0.00 0.00 59 1019.8
20260906050506 72 290 0.9 6.1 0.00 0.00 0.00 58 1019.8
20260906050006 72 290 0.9 8.7 0.00 0.00 0.00 58 1019.9
20260906050002 72 290 0.9 8.7 0.00 0.00 0.00 58 1001.8
20260906045507 72 286 2.6 9.6 0.00 0.00 0.00 58 1019.9
20260906045006 71 300 6.1 9.6 0.00 0.00 0.00 59 1019.9
20260906044505 71 293 3.5 6.1 0.00 0.00 0.00 60 1019.9
20260906044503 71 293 2.6 6.1 0.00 0.00 0.00 60 1001.8
20260906044006 71 293 2.6 7.8 0.00 0.00 0.00 60 1020.0
20260906043504 71 302 2.6 7.8 0.00 0.00 0.00 59 1019.9
20260906043007 71 320 1.7 7.0 0.00 0.00 0.00 60 1019.8
20260906043004 71 320 1.7 7.0 0.00 0.00 0.00 60 1001.7
20260906042504 71 209 0.9 2.6 0.00 0.00 0.00 60 1019.8
20260906042006 71 209 0.9 2.6 0.00 0.00 0.00 60 1019.9
20260906041506 71 209 0.9 4.3 0.00 0.00 0.00 59 1019.9
20260906041006 72 209 0.9 5.2 0.00 0.00 0.00 59 1019.7
20260906040015 71 188 3.5 7.8 0.00 0.00 0.00 59 1001.6
20260906040008 71 188 4.3 7.8 0.00 0.00 0.00 59 1019.6
20260906035505 71 147 4.3 8.7 0.00 0.00 0.00 59 1019.7
20260906035006 71 234 4.3 11.3 0.00 0.00 0.00 59 1019.6
20260906034507 72 181 6.1 11.3 0.00 0.00 0.00 59 1001.7
20260906034007 72 192 6.1 10.4 0.00 0.00 0.00 59 1019.7
20260906033505 72 180 6.1 10.4 0.00 0.00 0.00 59 1019.7
20260906033010 72 167 7.0 9.6 0.00 0.00 0.00 59 1019.7
20260906033004 72 167 6.1 9.6 0.00 0.00 0.00 59 1001.8
20260906032505 71 187 7.0 9.6 0.00 0.00 0.00 59 1019.6
20260906032006 71 171 6.1 9.6 0.00 0.00 0.00 58 1019.5
20260906031504 71 180 6.1 9.6 0.00 0.00 0.00 58 1019.5
20260906031502 71 180 6.1 9.6 0.00 0.00 0.00 58 1001.8
20260906031007 72 162 6.1 9.6 0.00 0.00 0.00 57 1019.5
20260906030009 72 186 6.1 8.7 0.00 0.00 0.00 53 1001.7
20260906024601 73 166 6.1 13.9 0.00 0.00 0.00 51 1001.7
20260906024512 73 169 7.0 13.9 0.00 0.00 0.00 51 1001.7
20260906024505 73 169 7.8 13.9 0.00 0.00 0.00 51 1019.3
20260906024006 73 147 10.4 13.9 0.00 0.00 0.00 49 1019.2
20260906023505 74 154 8.7 20.9 0.00 0.00 0.00 48 1019.1
20260906023005 73 130 11.3 20.9 0.00 0.00 0.00 51 1001.5
20260906022505 73 202 0.9 2.6 0.00 0.00 0.00 40 1018.6
20260906021508 74 202 0.9 1.7 0.00 0.00 0.00 37 1000.9
20260906021505 74 202 1.7 1.7 0.00 0.00 0.00 37 1018.4
20260906021006 74 202 0.9 1.7 0.00 0.00 0.00 37 1018.4
20260906020505 75 202 0.0 0.0 0.00 0.00 0.00 38 1018.4
20260906020006 76 202 0.0 0.0 0.00 0.00 0.00 38 1018.3
20260906020004 76 202 0.0 0.0 0.00 0.00 0.00 38 1000.8
20260906015505 76 202 0.0 0.9 0.00 0.00 0.00 38 1018.3
20260906015009 77 202 0.0 0.9 0.00 0.00 0.00 34 1018.3
20260906014508 77 202 0.0 0.9 0.00 0.00 0.00 34 1000.8
20260906014505 77 202 0.0 0.9 0.00 0.00 0.00 34 1018.3
20260906014006 77 202 0.0 0.0 0.00 0.00 0.00 34 1018.3
20260906013105 78 202 0.0 0.9 0.00 0.00 0.00 33 1000.8
20260906012959 78 202 0.0 0.9 0.00 0.00 0.00 33 1018.3
20260906012505 78 202 0.0 3.5 0.00 0.00 0.00 34 1018.3
20260906012006 79 202 0.9 3.5 0.00 0.00 0.00 32 1018.3
20260906011505 79 161 1.7 5.2 0.00 0.00 0.00 31 1000.8
20260906011007 79 161 3.5 5.2 0.00 0.00 0.00 32 1018.2
20260906010505 79 161 1.7 2.6 0.00 0.00 0.00 34 1018.2
20260906010007 79 161 0.9 2.6 0.00 0.00 0.00 34 1018.4
20260906010004 79 161 0.9 2.6 0.00 0.00 0.00 34 1000.9
20260906005505 80 161 1.7 2.6 0.00 0.00 0.00 34 1018.5
20260906004505 80 161 1.7 4.3 0.00 0.00 0.00 31 1018.5
20260906004007 80 161 2.6 4.3 0.00 0.00 0.00 31 1018.5
20260906003505 80 161 3.5 5.2 0.00 0.00 0.00 31 1018.5
20260906003006 80 161 3.5 5.2 0.00 0.00 0.00 30 1018.5
20260906003003 80 161 2.6 5.2 0.00 0.00 0.00 30 1001.1
20260906002505 81 161 3.5 6.1 0.00 0.00 0.00 29 1018.4
20260906002008 81 161 3.5 6.1 0.00 0.00 0.00 29 1018.4
20260906001506 82 161 4.3 6.1 0.00 0.00 0.00 28 1018.3
20260906001503 82 161 3.5 6.1 0.00 0.00 0.00 28 1000.9
20260906001007 82 167 5.2 6.1 0.00 0.00 0.00 27 1018.4
20260906000008 83 164 4.3 7.0 0.00 0.00 0.00 27 1018.2
20260906000004 83 164 4.3 7.0 0.00 0.00 0.00 27 1000.7
20260905235507 83 169 3.5 6.1 0.00 0.00 0.00 27 1018.2
20260905235006 84 163 4.3 6.1 0.00 0.00 0.00 27 1018.2
20260905234506 84 168 2.6 5.2 0.00 0.00 0.00 27 1018.1
20260905234504 84 168 2.6 5.2 0.00 0.00 0.00 27 1000.6
20260905234006 84 194 3.5 7.0 0.00 0.00 0.00 26 1018.2
20260905233506 85 153 4.3 8.7 0.00 0.00 0.00 25 1018.0
20260905233006 84 157 4.3 7.0 0.00 0.00 0.00 25 1018.1
20260905233003 84 157 4.3 7.0 0.00 0.00 0.00 25 1000.6
20260905232505 84 165 4.3 7.0 0.00 0.00 0.00 27 1018.0
20260905232001 83 144 3.5 7.0 0.00 0.00 0.00 26 1018.1
20260905231505 83 163 5.2 8.7 0.00 0.00 0.00 27 1018.1
20260905231006 83 165 5.2 8.7 0.00 0.00 0.00 28 1018.1
20260905230110 83 163 3.5 8.7 0.00 0.00 0.00 27 1000.7
20260905225505 83 188 4.3 8.7 0.00 0.00 0.00 27 1018.2
20260905224505 84 167 6.1 9.6 0.00 0.00 0.00 27 1000.7
20260905224006 83 171 4.3 6.1 0.00 0.00 0.00 27 1018.2
20260905223505 83 153 4.3 7.0 0.00 0.00 0.00 26 1018.1
20260905223008 84 149 3.5 8.7 0.00 0.00 0.00 25 1018.1
20260905223004 84 149 3.5 8.7 0.00 0.00 0.00 25 1000.6
20260905222006 85 161 7.0 10.4 0.00 0.00 0.00 25 1018.2
20260905221506 85 151 7.0 9.6 0.00 0.00 0.00 26 1018.2
20260905221504 85 151 6.1 9.6 0.00 0.00 0.00 26 1000.7
20260905221005 84 125 7.8 9.6 0.00 0.00 0.00 26 1018.2
20260905220458 83 108 6.1 8.7 0.00 0.00 0.00 25 1018.2
20260905220004 83 147 4.3 7.0 0.00 0.00 0.00 26 1000.8
20260905215505 83 117 1.7 3.5 0.00 0.00 0.00 26 1018.2
20260905214508 83 150 1.7 4.3 0.00 0.00 0.00 24 1018.3
20260905214503 83 150 1.7 4.3 0.00 0.00 0.00 24 1000.8
20260905213007 83 129 5.2 8.7 0.00 0.00 0.00 25 1018.4
20260905213003 83 129 5.2 8.7 0.00 0.00 0.00 25 1000.9
20260905212505 84 113 4.3 7.0 0.00 0.00 0.00 26 1018.3
20260905212006 84 93 0.9 5.2 0.00 0.00 0.00 25 1018.4
20260905211603 84 86 3.5 5.2 0.00 0.00 0.00 25 1001.0
20260905211458 84 71 2.6 7.0 0.00 0.00 0.00 25 1018.5
20260905211005 84 68 1.7 8.7 0.00 0.00 0.00 24 1018.5
20260905210506 84 85 5.2 8.7 0.00 0.00 0.00 24 1018.6
20260905210006 84 106 5.2 8.7 0.00 0.00 0.00 24 1018.6
20260905210004 84 106 4.3 8.7 0.00 0.00 0.00 24 1001.1
20260905205006 85 346 4.3 11.3 0.00 0.00 0.00 24 1018.7
20260905204504 86 88 3.5 11.3 0.00 0.00 0.00 24 1001.3
20260905204006 86 45 3.5 10.4 0.00 0.00 0.00 24 1018.7
20260905203505 85 57 6.1 10.4 0.00 0.00 0.00 25 1018.9
20260905203004 85 101 3.5 12.2 0.00 0.00 0.00 24 1001.5
20260905202506 86 59 8.7 12.2 0.00 0.00 0.00 24 1019.0
20260905202006 86 36 2.6 12.2 0.00 0.00 0.00 26 1019.0
20260905201505 86 73 3.5 9.6 0.00 0.00 0.00 24 1019.1
20260905201503 86 73 3.5 9.6 0.00 0.00 0.00 24 1001.7
20260905201009 86 59 3.5 9.6 0.00 0.00 0.00 25 1019.1
20260905200505 85 355 3.5 7.8 0.00 0.00 0.00 25 1019.2
20260905200007 85 48 3.5 11.3 0.00 0.00 0.00 24 1001.8
20260905195505 86 67 7.8 11.3 0.00 0.00 0.00 24 1019.4
20260905195006 87 39 5.2 10.4 0.00 0.00 0.00 24 1019.4
20260905194507 86 355 3.5 10.4 0.00 0.00 0.00 25 1019.4
20260905194504 86 355 3.5 10.4 0.00 0.00 0.00 25 1002.0
20260905194005 86 322 3.5 9.6 0.00 0.00 0.00 23 1019.4
20260905193506 86 330 4.3 11.3 0.00 0.00 0.00 24 1019.5
20260905193006 86 333 5.2 11.3 0.00 0.00 0.00 25 1019.6
20260905193004 86 333 4.3 11.3 0.00 0.00 0.00 25 1002.2
20260905192506 86 331 5.2 12.2 0.00 0.00 0.00 24 1019.5
20260905192006 85 341 3.5 13.0 0.00 0.00 0.00 26 1019.6
20260905191503 84 348 6.1 13.0 0.00 0.00 0.00 25 1002.1
20260905191006 84 29 8.7 13.0 0.00 0.00 0.00 24 1019.7
20260905190008 85 350 6.1 12.2 0.00 0.00 0.00 25 1019.7
20260905190004 85 350 6.1 12.2 0.00 0.00 0.00 25 1002.3
20260905185506 84 355 4.3 13.0 0.00 0.00 0.00 26 1019.8
20260905184505 83 22 6.1 12.2 0.00 0.00 0.00 25 1002.5
20260905184007 83 37 7.8 13.0 0.00 0.00 0.00 24 1019.9
20260905183506 83 18 9.6 13.9 0.00 0.00 0.00 26 1019.9
20260905183007 84 26 7.0 13.9 0.00 0.00 0.00 25 1020.0
20260905183003 84 31 6.1 13.9 0.00 0.00 0.00 25 1002.6
20260905182505 84 5 2.6 11.3 0.00 0.00 0.00 26 1020.1
20260905182006 83 355 5.2 14.8 0.00 0.00 0.00 26 1020.2
20260905181505 82 5 6.1 14.8 0.00 0.00 0.00 26 1020.1
20260905181503 82 5 5.2 14.8 0.00 0.00 0.00 26 1002.7
20260905181006 82 49 9.6 16.5 0.00 0.00 0.00 25 1020.2
20260905180505 82 29 8.7 16.5 0.00 0.00 0.00 25 1020.2
20260905180004 83 17 8.7 15.6 0.00 0.00 0.00 26 1002.8
20260905175505 83 44 9.6 15.6 0.00 0.00 0.00 26 1020.3
20260905174503 81 5 7.8 13.9 0.00 0.00 0.00 27 1002.8
20260905174006 82 11 5.2 16.5 0.00 0.00 0.00 26 1020.3
20260905173505 82 21 7.8 16.5 0.00 0.00 0.00 27 1020.3
20260905173007 81 28 8.7 14.8 0.00 0.00 0.00 27 1020.4
20260905173005 81 28 8.7 14.8 0.00 0.00 0.00 27 1003.0
20260905172505 82 55 8.7 14.8 0.00 0.00 0.00 27 1020.4
20260905172007 82 336 6.1 14.8 0.00 0.00 0.00 27 1020.4
20260905171505 82 22 8.7 14.8 0.00 0.00 0.00 28 1020.5
20260905171006 82 360 4.3 13.0 0.00 0.00 0.00 29 1020.5
20260905170505 82 360 7.0 13.0 0.00 0.00 0.00 28 1020.5
20260905170007 82 10 3.5 10.4 0.00 0.00 0.00 30 1020.5
20260905170005 82 10 3.5 10.4 0.00 0.00 0.00 30 1003.0
20260905165506 81 336 5.2 13.0 0.00 0.00 0.00 30 1020.4
20260905164505 81 20 7.0 10.4 0.00 0.00 0.00 28 1020.5
20260905163505 81 25 3.5 11.3 0.00 0.00 0.00 31 1020.5
20260905163007 80 14 6.1 10.4 0.00 0.00 0.00 31 1020.4
20260905163004 80 14 6.1 10.4 0.00 0.00 0.00 31 1003.0
20260905162506 79 19 3.5 10.4 0.00 0.00 0.00 31 1020.4
20260905162007 79 27 6.1 11.3 0.00 0.00 0.00 31 1020.3
20260905161505 79 22 7.8 11.3 0.00 0.00 0.00 30 1020.3
20260905161503 79 22 7.0 11.3 0.00 0.00 0.00 30 1002.8
20260905161007 80 36 6.1 10.4 0.00 0.00 0.00 29 1020.2
20260905160007 79 327 4.3 9.6 0.00 0.00 0.00 31 1020.1
20260905160004 79 327 4.3 9.6 0.00 0.00 0.00 31 1002.6
20260905155506 79 5 4.3 9.6 0.00 0.00 0.00 33 1020.1
20260905155007 78 20 2.6 8.7 0.00 0.00 0.00 34 1020.1
20260905154506 77 314 3.5 8.7 0.00 0.00 0.00 35 1020.1
20260905154503 77 314 2.6 8.7 0.00 0.00 0.00 35 1002.6
20260905154007 77 309 5.2 8.7 0.00 0.00 0.00 35 1020.1
20260905153506 76 319 3.5 7.8 0.00 0.00 0.00 37 1020.1
20260905153008 76 318 2.6 7.8 0.00 0.00 0.00 38 1020.1
20260905153004 76 318 2.6 7.8 0.00 0.00 0.00 38 1002.6
20260905152505 75 254 5.2 8.7 0.00 0.00 0.00 38 1020.0
20260905152006 74 304 5.2 8.7 0.00 0.00 0.00 40 1020.0
20260905151505 74 313 4.3 7.0 0.00 0.00 0.00 40 1020.0
20260905151503 74 313 3.5 7.0 0.00 0.00 0.00 40 1002.5
20260905150504 74 298 6.1 10.4 0.00 0.00 0.00 40 1019.9
20260905150007 74 288 6.1 10.4 0.00 0.00 0.00 40 1019.9
20260905150004 74 288 6.1 10.4 0.00 0.00 0.00 40 1002.5
20260905145505 74 301 2.6 11.3 0.00 0.00 0.00 41 1019.9
20260905145006 73 292 5.2 11.3 0.00 0.00 0.00 41 1019.9
20260905144504 73 286 4.3 10.4 0.00 0.00 0.00 41 1002.6
20260905144006 72 297 4.3 7.8 0.00 0.00 0.00 43 1019.9
20260905143505 72 286 3.5 7.8 0.00 0.00 0.00 44 1019.9
20260905143007 71 294 3.5 7.0 0.00 0.00 0.00 46 1019.9
20260905142505 71 259 3.5 7.0 0.00 0.00 0.00 47 1019.9
20260905141506 69 265 2.6 5.2 0.00 0.00 0.00 49 1019.7
20260905141504 69 265 2.6 5.2 0.00 0.00 0.00 49 1002.5
20260905141007 68 274 2.6 5.2 0.00 0.00 0.00 51 1019.7
20260905140505 68 294 1.7 4.3 0.00 0.00 0.00 53 1019.7
20260905140009 67 226 2.6 6.1 0.00 0.00 0.00 54 1019.7
20260905140005 67 226 1.7 6.1 0.00 0.00 0.00 54 1002.4
20260905135506 66 223 1.7 6.1 0.00 0.00 0.00 58 1019.7
20260905135005 65 206 2.6 4.3 0.00 0.00 0.00 59 1019.6
20260905134557 65 236 1.7 4.3 0.00 0.00 0.00 61 1002.3
20260905134459 65 237 2.6 4.3 0.00 0.00 0.00 62 1019.6
20260905134006 64 241 1.7 4.3 0.00 0.00 0.00 63 1019.5
20260905133506 64 230 2.6 4.3 0.00 0.00 0.00 64 1019.5
20260905133006 63 218 2.6 3.5 0.00 0.00 0.00 65 1019.5
20260905133003 63 218 1.7 3.5 0.00 0.00 0.00 65 1002.2
20260905132505 63 218 0.9 1.7 0.00 0.00 0.00 66 1019.5